CW9865 Weather Reports


time (UTC)temp
F
wind
direction
speed
knots
gust
knots
rain 1hr
in
rain 24hr
in
rain mn
in
humidity
%
barometer
mb
20260504050457 44 278 0.0 0.0 0.00 0.00 0.00 73 1009.0
20260504045457 44 278 0.0 0.0 0.00 0.00 0.00 72 1009.1
20260504044957 44 278 0.0 0.0 0.00 0.00 0.00 71 1009.1
20260504044556 44 278 0.0 0.0 0.00 0.00 0.00 71 1010.3
20260504043957 44 278 0.0 0.0 0.00 0.00 0.00 72 1009.4
20260504043457 44 278 0.0 0.0 0.00 0.00 0.00 69 1009.5
20260504043113 44 278 0.0 0.0 0.00 0.00 0.00 69 1010.5
20260504042457 44 278 0.0 0.0 0.00 0.00 0.00 70 1009.6
20260504041956 44 278 0.0 1.7 0.00 0.00 0.00 68 1009.7
20260504041556 44 278 0.0 1.7 0.00 0.00 0.00 68 1010.8
20260504041001 44 278 0.0 1.7 0.00 0.00 0.00 67 1009.9
20260504040457 44 278 0.0 1.7 0.00 0.00 0.00 67 1009.9
20260504040100 44 278 0.0 1.7 0.00 0.00 0.00 65 1010.9
20260504035459 44 278 0.0 1.7 0.00 0.00 0.00 65 1009.9
20260504034559 44 278 0.0 1.7 0.00 0.00 0.00 65 1010.8
20260504034002 44 278 0.0 0.9 0.00 0.00 0.00 65 1009.8
20260504033459 44 278 0.0 1.7 0.00 0.00 0.00 64 1009.8
20260504033121 44 278 0.0 2.6 0.00 0.00 0.00 65 1010.8
20260504032500 44 278 0.0 2.6 0.00 0.00 0.00 65 1009.7
20260504032000 44 278 0.0 2.6 0.00 0.00 0.00 64 1009.6
20260504031601 44 278 0.0 1.7 0.00 0.00 0.00 64 1010.6
20260504030959 44 278 0.0 0.0 0.00 0.00 0.00 64 1009.3
20260504030459 43 278 0.0 1.7 0.00 0.00 0.00 64 1009.3
20260504030118 43 278 0.0 1.7 0.00 0.00 0.00 64 1010.4
20260504030003 43 278 0.0 0.0 0.00 0.00 0.00 64 1010.5
20260504025500 43 278 0.0 0.0 0.00 0.00 0.00 64 1009.3
20260504025005 43 278 0.0 1.7 0.00 0.00 0.00 65 1009.4
20260504024601 43 278 0.0 1.7 0.00 0.00 0.00 65 1010.4
20260504024000 42 278 0.0 0.9 0.00 0.00 0.00 66 1009.4
20260504023500 42 278 0.0 0.9 0.00 0.00 0.00 65 1009.3
20260504023100 42 278 0.0 0.9 0.00 0.00 0.00 65 1010.4
20260504022500 42 278 0.0 1.7 0.00 0.00 0.00 64 1009.3
20260504022000 42 278 0.0 0.9 0.00 0.00 0.00 64 1009.1
20260504021600 42 278 0.0 1.7 0.00 0.00 0.00 65 1010.2
20260504021003 42 278 0.0 1.7 0.00 0.00 0.00 65 1009.1
20260504020501 42 278 0.0 2.6 0.00 0.00 0.00 65 1009.2
20260504020108 42 278 0.0 2.6 0.00 0.00 0.00 64 1010.3
20260504015538 42 278 0.0 1.7 0.00 0.00 0.00 62 1009.2
20260504015000 42 278 0.0 1.7 0.00 0.00 0.00 62 1009.3
20260504014608 42 278 0.0 1.7 0.00 0.00 0.00 61 1010.3
20260504014000 43 278 0.0 1.7 0.00 0.00 0.00 61 1009.1
20260504013500 43 278 0.0 1.7 0.00 0.00 0.00 61 1009.1
20260504013100 43 278 0.0 1.7 0.00 0.00 0.00 61 1010.3
20260504012500 43 278 0.0 1.7 0.00 0.00 0.00 61 1009.3
20260504012000 43 278 0.0 1.7 0.00 0.00 0.00 61 1009.3
20260504010501 44 278 0.0 1.7 0.00 0.00 0.00 56 1009.0
20260504010002 44 278 0.0 1.7 0.00 0.00 0.00 56 1010.0
20260504005459 44 278 0.0 1.7 0.00 0.00 0.00 56 1008.9
20260504005000 44 278 0.0 1.7 0.00 0.00 0.00 56 1008.9
20260504004559 45 278 0.0 1.7 0.00 0.00 0.00 56 1009.9
20260504003501 45 278 0.0 2.6 0.00 0.00 0.00 55 1008.7
20260504003107 45 278 0.0 3.5 0.00 0.00 0.00 54 1009.8
20260504001959 46 281 0.9 3.5 0.00 0.00 0.00 54 1008.8
20260504001602 46 279 0.0 5.2 0.00 0.00 0.00 54 1009.8
20260504000006 46 273 0.9 3.5 0.00 0.00 0.00 49 1008.5
20260504000002 46 273 0.0 3.5 0.00 0.00 0.00 49 1009.7
20260503235459 46 277 0.9 3.5 0.00 0.00 0.00 49 1008.6
20260503234959 46 278 0.9 2.6 0.00 0.00 0.00 49 1008.6
20260503234559 47 288 0.0 3.5 0.00 0.00 0.00 49 1009.7
20260503233959 47 273 0.9 6.1 0.00 0.00 0.00 48 1008.5
20260503233502 47 283 0.9 7.0 0.00 0.00 0.00 47 1008.4
20260503233107 47 284 1.7 7.0 0.00 0.00 0.00 45 1009.4
20260503232459 47 303 0.9 7.0 0.00 0.00 0.00 46 1008.4
20260503232002 47 274 1.7 4.3 0.00 0.00 0.00 46 1008.2
20260503231559 48 281 0.9 7.0 0.00 0.00 0.00 46 1009.3
20260503230504 48 311 1.7 6.1 0.00 0.00 0.00 43 1007.9
20260503230113 49 290 0.0 3.5 0.00 0.00 0.00 44 1009.2
20260503225459 49 246 1.7 7.0 0.00 0.00 0.00 43 1008.1
20260503224704 49 298 0.9 14.8 0.00 0.00 0.00 42 1009.1
20260503224001 49 296 2.6 14.8 0.00 0.00 0.00 40 1007.9
20260503223459 49 294 2.6 13.0 0.00 0.00 0.00 39 1007.9
20260503223113 49 285 2.6 13.0 0.00 0.00 0.00 38 1009.1
20260503221559 50 244 1.7 10.4 0.00 0.00 0.00 38 1008.8
20260503220459 51 258 1.7 10.4 0.00 0.00 0.00 36 1007.6
20260503220101 51 304 0.9 8.7 0.00 0.00 0.00 36 1008.8
20260503220006 51 284 1.7 8.7 0.00 0.00 0.00 36 1008.8
20260503220003 51 284 1.7 8.7 0.00 0.00 0.00 36 1007.6
20260503214959 51 292 1.7 7.8 0.00 0.00 0.00 35 1007.6
20260503214601 51 277 0.9 7.8 0.00 0.00 0.00 35 1008.8
20260503214007 51 304 2.6 11.3 0.00 0.00 0.00 35 1007.6
20260503213503 51 282 2.6 11.3 0.00 0.00 0.00 33 1007.7
20260503213059 51 282 1.7 10.4 0.00 0.00 0.00 34 1008.7
20260503212000 52 291 1.7 8.7 0.00 0.00 0.00 34 1007.6
20260503211002 52 302 2.6 11.3 0.00 0.00 0.00 32 1007.5
20260503210459 52 325 1.7 9.6 0.00 0.00 0.00 32 1007.7
20260503210059 52 258 1.7 7.8 0.00 0.00 0.00 31 1008.7
20260503205502 51 286 1.7 7.8 0.00 0.00 0.00 32 1007.7
20260503204559 51 268 1.7 9.6 0.00 0.00 0.00 32 1008.7
20260503203959 52 272 2.6 9.6 0.00 0.00 0.00 32 1007.6
20260503203500 51 307 1.7 5.2 0.00 0.00 0.00 35 1007.7
20260503203059 51 283 1.7 8.7 0.00 0.00 0.00 33 1008.8
20260503202459 51 291 2.6 8.7 0.00 0.00 0.00 34 1007.9
20260503201559 51 244 4.3 11.3 0.00 0.00 0.00 33 1009.1
20260503201500 51 271 3.5 11.3 0.00 0.00 0.00 33 1007.8
20260503201000 51 266 2.6 9.6 0.00 0.00 0.00 33 1008.0
20260503200459 51 304 2.6 7.0 0.00 0.00 0.00 34 1007.9
20260503200100 51 302 2.6 6.1 0.00 0.00 0.00 33 1009.1
20260503200000 51 298 2.6 7.0 0.00 0.00 0.00 35 1007.9
20260503195500 51 301 2.6 9.6 0.00 0.00 0.00 33 1007.8
20260503194624 52 297 1.7 7.0 0.00 0.00 0.00 35 1009.1
20260503194509 51 304 1.7 7.0 0.00 0.00 0.00 36 1007.9
20260503193959 51 311 2.6 9.6 0.00 0.00 0.00 36 1007.9
20260503193101 51 284 5.2 13.9 0.00 0.00 0.00 35 1009.3
20260503193035 51 350 1.7 13.9 0.00 0.00 0.00 38 1008.1
20260503192459 51 273 1.7 11.3 0.00 0.00 0.00 36 1008.1
20260503191612 50 281 1.7 6.1 0.00 0.00 0.00 39 1009.5
20260503190958 51 290 1.7 4.3 0.00 0.00 0.00 39 1008.3
20260503190459 51 229 1.7 7.8 0.00 0.00 0.00 42 1008.4
20260503190059 51 273 1.7 7.8 0.00 0.00 0.00 40 1009.6
20260503185000 50 298 1.7 7.0 0.00 0.00 0.00 40 1008.5
20260503183959 48 309 1.7 9.6 0.00 0.00 0.00 45 1008.6
20260503183458 48 289 1.7 9.6 0.00 0.00 0.00 42 1008.8
20260503183105 48 253 2.6 7.0 0.00 0.00 0.00 42 1010.1
20260503181958 48 314 1.7 5.2 0.00 0.00 0.00 44 1008.9
20260503181608 48 298 0.9 7.0 0.00 0.00 0.00 41 1010.2
20260503181002 48 312 2.6 10.4 0.00 0.00 0.00 43 1008.9
20260503180501 47 320 2.6 10.4 0.00 0.00 0.00 45 1009.1
20260503180059 47 271 3.5 9.6 0.00 0.00 0.00 43 1010.2
20260503175501 47 287 2.6 11.3 0.00 0.00 0.00 43 1009.0
20260503175046 47 302 2.6 11.3 0.00 0.00 0.00 42 1008.9
20260503174613 47 307 0.9 8.7 0.00 0.00 0.00 44 1010.1
20260503173958 47 316 2.6 9.6 0.00 0.00 0.00 46 1009.2
20260503173110 45 281 0.9 7.0 0.00 0.00 0.00 52 1010.4
20260503172458 45 283 1.7 6.1 0.00 0.00 0.00 50 1009.2
20260503171958 45 246 1.7 4.3 0.00 0.00 0.00 48 1009.2
20260503171559 45 277 1.7 5.2 0.00 0.00 0.00 48 1010.5
20260503171012 45 293 1.7 5.2 0.00 0.00 0.00 51 1009.4
20260503170458 45 301 1.7 5.2 0.00 0.00 0.00 49 1009.6
20260503151008 43 290 1.7 7.8 0.00 0.00 0.00 55 1009.8
20260503150458 43 310 2.6 5.2 0.00 0.00 0.00 57 1009.9
20260503130959 40 279 1.7 7.0 0.00 0.00 0.00 74 1010.2
20260503130458 39 284 1.7 6.1 0.00 0.00 0.00 73 1010.1
20260503120117 37 271 1.7 7.8 0.00 0.00 0.00 82 1011.2
20260503110457 35 277 0.9 3.5 0.00 0.00 0.00 85 1009.9
20260503090457 34 271 0.9 2.6 0.00 0.00 0.00 84 1009.2
20260503081558 35 304 0.9 3.5 0.00 0.01 0.00 83 1010.4
20260503081000 35 285 0.9 2.6 0.00 0.01 0.00 83 1009.6
20260503071958 34 270 0.9 6.1 0.00 0.01 0.00 83 1009.7
20260503071600 34 285 0.0 7.0 0.00 0.01 0.00 83 1010.7
20260503070957 34 275 0.9 7.0 0.00 0.01 0.00 83 1009.8